Home   Weather   Aurillac   Past weeks

Flag for France Past Weather in Aurillac, Auvergne, France — Yesterday and Last 2 Weeks

41 °F

Light snow. Dense fog.

Feels Like: 41 °F
Forecast: 35 / 66 °F
Wind: No wind

Location: Aurillac

Current Time: Oct 27, 2016 at 5:04:34 AM

Latest Report: Oct 27, 2016 at 3:00 AM

Visibility: 0 mi

Pressure: 30.47 "Hg (28.21 "Hg at 627m altitude)

Humidity: 98%

Dew Point: 40 °F

Location of AurillacLocation

Past Weather in Aurillac — Graph


Aurillac Temperature Yesterday

Maximum temperature yesterday: 65 °F (at 4:00 PM)
Minimum temperature yesterday: 48 °F (at 11:00 PM)
Average temperature yesterday: 57 °F

High & Low Weather Summary for the Past Weeks

High67 °F (Oct 24, 3:00 PM)100% (Oct 18, 3:00 AM)30.47 "Hg (Oct 18, 3:00 AM)
Low30 °F (Oct 22, 7:00 AM)45% (Oct 12, 8:00 AM)29.50 "Hg (Oct 14, 7:00 AM)
Average51 °F83%30.00 "Hg
* Reported Oct 12 3:00 AM — Oct 27 3:00 AM, Aurillac, Weather by CustomWeather, © 2016

Note: Actual official high and low records may vary slightly from our data, if they occured in-between our weather recording intervals... More about our weather records


Aurillac Weather History for the Previous 24 Hours

Scroll right to see more
Time TempWeatherWind HumidityBarometerVisibility
3:00 AM
Thu, Oct 27
41 °FLight snow. Dense fog.No wind98%30.47 "Hg0 mi
2:00 AM42 °FLight rain. Dense fog.No wind98%30.45 "Hg0 mi
1:00 AM44 °FLight rain. Dense fog.2 mph96%30.44 "Hg0 mi
12:00 AM47 °FLight rain. Dense fog.1 mph99%30.42 "Hg0 mi
11:00 PM
Wed, Oct 26
48 °FHaze.5 mph95%30.39 "Hg11 mi
10:00 PM49 °FCool.3 mph94%30.37 "Hg19 mi
9:00 PM52 °FCool.3 mph94%30.35 "Hg6 mi
8:00 PM54 °FCool.5 mph88%30.33 "Hg17 mi
7:00 PM58 °FCool.3 mph81%30.29 "Hg34 mi
6:00 PM62 °FCool.7 mph74%30.26 "Hg28 mi
5:00 PM65 °FMild.10 mph68%30.24 "Hg12 mi
4:00 PM65 °FMild.8 mph68%30.22 "Hg37 mi
3:00 PM64 °FMild.9 mph66%30.23 "Hg37 mi
2:00 PM64 °FMild.5 mph72%30.24 "Hg11 mi
1:00 PM62 °FCool.6 mph82%30.26 "Hg11 mi
12:00 PM60 °FPartly sunny.5 mph88%30.27 "Hg11 mi
11:00 AM58 °FLow clouds.3 mph97%30.27 "Hg4 mi
10:00 AM56 °FLow clouds.2 mph98%30.27 "Hg3 mi
9:00 AM55 °FHeavy rain. Low clouds.2 mph98%30.25 "Hg1 mi
8:00 AM56 °FOvercast.No wind98%30.22 "Hg5 mi
7:00 AM55 °FOvercast.2 mph97%30.22 "Hg5 mi
6:00 AM55 °FOvercast.1 mph97%30.22 "Hg5 mi
5:00 AM55 °FOvercast.3 mph97%30.21 "Hg11 mi
Weather by CustomWeather, © 2016

See weather overviewHow to use our weather pages